Location: Saint Peter Port
(49.4500°N, 2.5330°W)
Time: 11:16:05
(UTC+01:00)

Cosmos 2242 Rocket - Visible Passes

Search period start: 21 April 2014 00:00
Search period end: 01 May 2014 00:00
Orbit: 619 x 654 km, 82.5° (Epoch: 20 April)

Date Brightness Start Highest point End Pass type
(mag) Time Alt. Az. Time Alt. Az. Time Alt. Az.
21 Apr 6.8 02:53:55 10° NE 02:54:46 11° ENE 02:55:38 10° ENE visible
21 Apr 3.7 04:29:25 10° N 04:33:51 78° E 04:38:15 10° SSE visible
22 Apr 6.2 03:15:00 10° NNE 03:18:11 19° ENE 03:21:20 10° ESE visible
22 Apr 3.7 04:52:28 10° NNW 04:56:46 53° W 05:01:02 10° S visible
23 Apr 5.2 03:37:22 10° N 03:41:25 34° ENE 03:45:26 10° SE visible
23 Apr 4.6 05:15:50 10° NNW 05:19:32 27° W 05:23:14 10° SW visible
24 Apr 3.9 04:00:06 10° N 04:04:30 67° ENE 04:08:52 10° SSE visible
25 Apr 6.2 02:45:52 10° NNE 02:48:45 17° ENE 02:51:37 10° ESE visible
25 Apr 3.6 04:23:05 10° NNW 04:27:27 61° W 04:31:46 10° S visible
26 Apr 5.3 03:08:06 10° N 03:12:01 30° ENE 03:15:54 10° SE visible
26 Apr 4.4 04:46:22 10° NNW 04:50:14 31° W 04:54:04 10° SSW visible
27 Apr 4.1 03:30:46 10° N 03:35:08 58° ENE 03:38:49 14° SSE visible
27 Apr 5.2 05:10:09 10° NW 05:12:54 17° W 05:15:39 10° WSW visible
28 Apr 6.3 02:16:46 10° NNE 02:19:19 15° ENE 02:21:50 10° E visible
28 Apr 3.5 03:53:42 10° NNW 03:58:06 71° W 04:01:08 20° S visible
29 Apr 5.5 02:38:51 10° NNE 02:42:36 27° ENE 02:46:00 12° SE visible
29 Apr 4.2 04:16:54 10° NNW 04:20:55 35° W 04:23:29 19° SW visible
30 Apr 4.3 03:01:26 10° N 03:05:45 50° ENE 03:08:25 21° SE visible
30 Apr 5.1 04:40:32 10° NW 04:43:37 19° W 04:45:54 13° WSW visible
